Location: ???????
(38.3360°N, 23.6977°E)
Time: 21:18:20
(UTC+00:00)

SJ 16-02 - Pass Details

Date: 17 November 2025
Orbit: 585 x 594 km, 75.0° (Epoch: 11 December)

Event Time Altitude Azimuth Distance (km) Brightness Sun altitude
Rises 16:28:42 0° 191° (SSW) 2,819 5.1 -15.3°
Reaches altitude 10° 16:30:55 10° 190° (S) 1,922 4.2 -15.7°
Maximum altitude 16:35:11 75° 106° (ESE) 619 1.2 -16.5°
Enters shadow 16:38:42 15° 21° (NNE) 1,615 3.2 -17.2°
